Regional Weather Roundup
Issued by NWS

Home | Current Version | Previous Version | Text Only | Print | Product List | Glossary Off
Versions: 1 2 3 4 5 6 7 8 9 10 11 12 13 14 15 16 17 18 19 20 21 22 23 24 25 26 27 28 29 30 31 32 33 34 35 36 37 38 39 40 41 42 43 44 45 46 47 48 49 50

000
ASUS43 KMKX 210211
RWRWI

WISCONSIN REGIONAL WEATHER ROUNDUP
NATIONAL WEATHER SERVICE MILWAUKEE/SULLIVAN WI
900 PM CDT THU JUL 20 2017

NOTE: "FAIR" INDICATES FEW OR NO CLOUDS BELOW 12,000 FEET WITH NO
SIGNIFICANT WEATHER AND/OR OBSTRUCTIONS TO VISIBILITY.

WIZ001-002-006>008-014>016-023>028-210300-
NORTHWEST WISCONSIN

CITY           SKY/WX    TMP DP  RH WIND       PRES   REMARKS
SUPERIOR ARPT  NOT AVBL
ASHLAND        CLEAR     70  66  87 S5        29.95R
HAYWARD        CLEAR     72  65  78 CALM      29.98S
SIREN          CLEAR     73  67  80 CALM      29.98R
CUMBERLAND     CLEAR     72  66  83 CALM      29.99S
RICE LAKE      CLEAR     75  67  77 CALM      30.00S
CHETEK           N/A     73  69  86 CALM      29.99S
LADYSMITH      CLEAR     73  66  78 CALM      30.00F
EAU CLAIRE     CLEAR     75  69  81 CALM      29.97F
MENOMONIE      CLEAR     75  69  80 CALM      29.98S
NEW RICHMOND   CLEAR     73  66  78 CALM      29.98S
OSCEOLA        CLEAR     74  71  88 CALM      30.00R
$$

WIZ003>005-009-010-017-018-210300-
NORTH CENTRAL WISCONSIN

CITY           SKY/WX    TMP DP  RH WIND       PRES   REMARKS
MANITOWISH WTR CLEAR     65  65 100 CALM      29.99S
ARBOR VITAE    CLEAR     71  63  77 CALM      29.99S
WOODRUFF       CLEAR     71  63  77 CALM      29.99S
RHINELANDER    CLEAR     66  63  90 CALM      30.01R
EAGLE RIVER    CLEAR     64  58  78 CALM      29.99S
LAND O LAKES   CLEAR     64  60  86 CALM      30.01S
PHILLIPS       CLEAR     72  64  75 CALM      29.99S
TOMAHAWK         N/A     67  61  80 CALM      30.00F
MEDFORD        CLEAR     73  66  79 CALM      30.00S
MERRILL        CLEAR     74  65  73 CALM      30.00R
$$

WIZ029-030-035-036-043>047-210300-
CENTRAL WISCONSIN

CITY           SKY/WX    TMP DP  RH WIND       PRES   REMARKS
WAUSAU         CLEAR     76  65  68 NW5       29.97S
MOSINEE        PTCLDY    75  66  73 W7        30.00S
MARSHFIELD     CLEAR     72  65  78 NW3       29.98F
STEVENS POINT  CLEAR     76  65  70 CALM      29.99S
WAUPACA        CLOUDY    79  66  63 CALM      29.97S HX  81
WAUTOMA        CLOUDY    77  67  71 NW3       29.97S
WISC RAPIDS    PTCLDY    75  65  70 N3        29.99F
CAMP DOUGLAS   CLOUDY    74  72  94 CALM      29.97F
$$

WIZ011>013-019>022-031-037>040-048>050-210300-
NORTHEAST WISCONSIN

CITY           SKY/WX    TMP DP  RH WIND       PRES   REMARKS
ANTIGO         CLEAR     70  62  74 W6        30.01R
SHAWANO        CLEAR     77  63  62 CALM      29.95S
OCONTO         CLEAR     73  68  85 CALM      29.93R
STURGEON BAY     N/A     73  69  87 S6        29.95R
GREEN BAY      CLOUDY    76  71  85 CALM      29.95R
MANITOWOC      LGT RAIN  72  67  84 S3        29.96R
APPLETON       MOCLDY    79  63  57 VRB5      29.95S HX  80
CLINTONVILLE   CLEAR     77  63  61 CALM      29.96R
OSHKOSH        CLOUDY    78  70  76 CALM      29.96R HX  80
$$

WIZ032>034-041-042-053>061-210300-
SOUTHWEST WISCONSIN

CITY           SKY/WX    TMP DP  RH WIND       PRES   REMARKS
LA CROSSE      CLEAR     79  71  76 CALM      29.95F HX  82
SPARTA         CLEAR     74  71  89 N3        29.97F
VIROQUA        CLEAR     75  72  91 NE3       30.00S
BOSCOBEL       CLOUDY    75  73  93 CALM      29.96F
PRAIRIE DU CHI CLOUDY    77  70  79 CALM      29.95F
PLATTEVILLE    PTCLDY    78  75  91 CALM      29.97F HX  81
$$

WIZ056-057-062-063-064-067-068-210300-
SOUTH CENTRAL WISCONSIN

CITY           SKY/WX    TMP DP  RH WIND       PRES   REMARKS
REEDSBURG      CLOUDY    74  70  86 CALM      29.97S
BARABOO/DELLS  CLOUDY    73  69  87 CALM      29.98S
LONE ROCK      CLOUDY    74  71  91 CALM      29.96F
MINERAL POINT  CLOUDY    79  73  83 NE5       29.97F HX  82
MADISON        CLOUDY    78  72  81 N3        29.97S HX  80
MIDDLETON      CLOUDY    76  75  97 CALM      29.99S
WATERTOWN      CLOUDY    79  72  80 N5        29.97S HX  82
MONROE         CLEAR     79  70  73 N3        29.98S HX  81
JANESVILLE     MOCLDY    81  73  78 CALM      29.97R HX  85
$$

WIZ051-052-058>065-066-070>072-210300-
SOUTHEAST WISCONSIN

CITY           SKY/WX    TMP DP  RH WIND       PRES   REMARKS
MILWAUKEE      CLOUDY    77  70  79 S8        29.97R
WAUKESHA       CLEAR     77  70  78 CALM      29.98S
MILWAUKEE/TIMM PTCLDY    79  66  65 S5        29.98R HX  81
RACINE         PTCLDY    74  69  85 S3        29.99R
KENOSHA        CLOUDY    75  69  81 S5        29.98S
FOND DU LAC    LGT RAIN  75  69  81 SW3       29.97R
SHEBOYGAN      CLOUDY    74  72  93 CALM      29.96R
WEST BEND      CLOUDY    73  72  94 CALM      29.97S
JUNEAU         CLOUDY    76  69  78 CALM      29.99R
$$

LSZ147-162-210300-
LAKE SUPERIOR

STATION/POSITION TIME  TEMP    WIND        PRES    WAVE
                       AIR SEA DIR/SP/G            HT/PER
                 (UTC) (F)     (DEG/KT/KT) (MB)    (FT/S)
W MID LAKE BUOY  0150   56 48  230/  8/  8 1013.1S   1
DEVILS ISLAND    0200   70     240/  9/ 11 1013.3R
SAXON HARBOR     0140   73     200/  3/  4 1013.2S
$$

LMZ867-665-643>646-210300-
LAKE MICHIGAN

STATION/POSITION TIME  TEMP    WIND        PRES    WAVE
                       AIR SEA DIR/SP/G            HT/PER
                 (UTC) (F)     (DEG/KT/KT) (MB)    (FT/S)
CHAMBERS ISLAND  0140   76     180/  4/  7 1012.5R
S GREEN BAY BUOY 0130   76 74  220/  4/  6 1013.3R
N MID LAKE BUOY  0150   68 65  190/ 10/ 12 1013.9R   1/ 5
NORTHPORT PIER   0140   74      30/  4/  7 1012.9R
KEWAUNEE LAKESHO 0142   70     180/  8/  8 1013.4R
SHEBOYGAN LAKESH 0200   72     180/  5/  7 1014.0R
PORT WASHINGTON  0140   72     180/  2/  8 1015.2S
ATWATER BUOY     0009   71 70  160/ 10/ 12 1014.7
MILWAUKEE LAKESH 0150   71     140/  8/  8   N/A
S MID LAKE BUOY  0150   72 72  210/  4/  4 1014.6R   1/ 4
KENOSHA   LAKESH 0200   75     210/  3/  6 1014.6
$$

TC  - TEMPERATURE IN CELSIUS
VSB - VISIBILITY IN STATUTE MILES
WCI - WIND CHILL INDEX
HX  - HEAT INDEX




USA.gov is the U.S. government's official web portal to all federal, state and local government web resources and services.